Location: Svitavy
(49.7500°N, 16.4667°E)
Time: 21:07:46
(UTC+01:00)

ISS - Visible Passes

Search period start: 12 December 2017 00:00
Search period end: 22 December 2017 00:00
Orbit: 402 x 407 km, 51.6° (Epoch: 13 December)

Date Brightness Start Highest point End Pass type
(mag) Time Alt. Az. Time Alt. Az. Time Alt. Az.
12 Dec -3.7 17:20:29 10° WNW 17:23:47 77° SSW 17:26:01 19° ESE visible
12 Dec -0.8 18:57:29 10° W 18:58:42 16° WSW 18:58:42 16° WSW visible
13 Dec -3.8 16:28:14 10° WNW 16:31:33 80° NNE 16:34:50 10° ESE visible
13 Dec -2.0 18:04:54 10° W 18:07:50 29° SSW 18:09:06 22° S visible
14 Dec -2.8 17:12:32 10° WNW 17:15:42 45° SSW 17:18:51 10° SE visible
15 Dec -0.9 17:57:25 10° W 17:59:32 16° SW 18:01:38 10° S visible
16 Dec -1.4 17:04:41 10° W 17:07:28 25° SW 17:10:13 10° SSE visible
18 Dec -0.5 16:57:20 10° WSW 16:59:03 14° SW 17:00:46 10° S visible
